Tracking 28790 objects as of 18-Apr-2024
HD Live streaming from Space Station
objects crossing your sky now

SL-8 DEB

Track SL-8 DEB now!
10-day predictions


NORAD ID: 39836
Int'l Code: 1991-009DU
Perigee: 1,449.4 km
Apogee: 1,668.8 km
Inclination: 73.9 °
Period: 117.1 minutes
Semi major axis: 7930 km
RCS: 0.0167 m2 (small)
Launch date: February 12, 1991
Source: Commonwealth of Independent States (former USSR) (CIS)
Launch site: PLESETSK MISSILE AND SPACE COMPLEX (PKMTR)

Note: This is SATELLITE DEBRIS
Your satellite tracking list
Your tracking list is empty




NASA's NSSDC Master Catalog

Two Line Element Set (TLE):
1 39836U 91009DU  24104.29699403  .00000009  00000-0  20450-3 0  9994
2 39836  73.9092  74.8323 0138332 177.7968 251.7159 12.29379476443925
Source of the keplerian elements: AFSPC